OBJECT C, 65997

Orbit data source: Space-Track

You're viewing an Uncataloged Satellite

Recently launched and/or uncataloged satellites may have evolving metadata. Metadata may include but not limited to: Owner, Maufacturer, Bus, Motor, and Mission.

OBJECT C, 65997 is a satellite owned by Zhongguo Xingwang (CN) in LEO that was launched on Thu, 16 Oct 2025 UTC via a CHANG ZHENG 8A launch vehicle from the Wenchang Satellite Launch Center (WSC). Unknown objects in Earth's orbit typically refer to objects detected orbiting the Earth but have not yet been identified or cataloged. These objects could be anything from previously untracked satellites, spent rocket stages, debris from satellite collisions, or even natural meteoroids temporarily captured by Earth's gravity.

Loading next visibility...
Identifier
65997, 2025-231C
Orbit
LEO
Country
Flag of CNCN / PRC
Related business
Manufacturer
CAST
Mission
Operational spacecraft
Bus & Motor
GUOWANG C, Unknown motor
Mass
~800 kg wet, ~800 kg dry
Launch date (UTC)
2025-10-16 (2 months ago)
Launch vehicle
CHANG ZHENG 8A
Launch site
Wenchang Satellite Launch Center (WSC)
Object type
Unknown
Shape & HBR
Unknown shape, 1.1 m
Radar Cross Section
RCS unknown

Expand to show TLE details & history
Last TLE update: 17 hours ago

TLE from 17 hours ago
0 OBJECT C
1 65997U 25231C   25340.90163617 -.00000043  00000-0  10812-3 0  9999
2 65997  49.9946 149.7138 0000206 201.7854 158.3027 13.70244102  7240
Epoch: 2025-12-06T21:38Z
TLE epoch observation values (Epoch: 2025-12-06T21:38:21.365Z)
Latitude
-0.00001°
Longitude
109.20205°
Altitude
999.352 km
Speed
7.353 km/s
True Right ascension
09h 58m 51s
True Declination
0° 00' 00"
Sunlit
Object was in daylight at epoch
Visualization orbit readout
Latitude
Unknown
Longitude
Unknown
Altitude
Unknown
Speed
Unknown
Apparent Right ascension
Unknown
Apparent Declination
Unknown
Sunlit
N/A
Visualization observer readout
Local Sidereal Time
12:43:21
Azimuth
Unknown
Elevation
Unknown
Doppler factor
Unknown
Orbital elements
Apogee altitude
999.567 km
Perigee altitude
999.263 km
Semi-major axis
7,377.552 km
Eccentricity
0.00002
Inclination
49.9946°
RAAN
149.7138°
Arg. of periapsis
201.7854°
True anomaly
158.30357°
Mean anomaly
158.3027°
Eccentric anomaly
158.30314°
Mean motion
3.42511 °/min
Orbital period
105.11 mins
BSTAR
0.00010812
Loading maneuver chart data...
Computing Atmospheric mass density...
Loading historical data...
Loading historical data...
Loading historical data...
Loading historical data...
Loading historical data...
Loading historical data...
Loading historical data...

Documentation

Showing up to 5 results
|